Location: Newark
(37.3333°N, 6.0167°W)
Time: 05:14:09
(UTC+00:00)

LightSail 2 - Pass Details

Date: 17 November 2019
Orbit: 696 x 730 km, 24.0° (Epoch: 14 December)

Event Time Altitude Azimuth Distance (km) Brightness Sun altitude
Exits shadow 04:43:14 16° 179° (S) 1,818 7.3 -28.1°
Drops below altitude 10° 04:45:49 10° 149° (SSE) 2,209 8.1 -27.6°
Sets 04:49:06 0° 129° (SE) 3,132 9.3 -27.0°
